This demonstration page uses our WeatherBlox Daily Observations layout. Learn more.

Left ArrowRight Arrow

30.00354, -91.81873

Hourly Observations for September 14, 2022

Temp ( °F °C ) Dew Point ( °F °C ) Humidity (%) Winds ( mph kmh ) Pressure ( in mb ) Visibility ( mi km ) Precip ( " mm )
12:53 am 00:53 Clear 68 20 63 17.2 84 84 NE 5 7 29.97 1015 10 16 0.00 0.00
1:53 am 01:53 Clear 68 20 62 16.7 81 81 ENE 6 9 29.97 1015 10 16 0.00 0.00
2:53 am 02:53 Clear 66 18.9 62 16.7 87 87 NNE 5 7 29.97 1015 10 16 0.00 0.00
3:53 am 03:53 Clear 67 19.4 62 16.7 84 84 NE 6 9 29.96 1015 10 16 0.00 0.00
4:53 am 04:53 Clear 66 18.9 61 16.1 84 84 ENE 7 11 29.97 1015 10 16 0.00 0.00
5:53 am 05:53 Partly Cloudy 66 18.9 61 16.1 84 84 NE 3 6 29.98 1015 10 16 0.00 0.00
6:53 am 06:53 Sunny 66 18.9 60 15.6 81 81 NE 7 11 30.01 1016 10 16 0.00 0.00
7:53 am 07:53 Sunny 68 20 62 16.7 81 81 ENE 5 7 30.02 1017 10 16 0.00 0.00
8:53 am 08:53 Sunny 74 23.3 63 17.2 69 69 E 6 9 30.03 1017 10 16 0.00 0.00
9:53 am 09:53 Sunny 79 26.1 64 17.8 60 60 ENE 10 17 30.04 1017 10 16 0.00 0.00
10:53 am 10:53 Sunny 83 28.3 62 16.7 49 49 ENE 13 20 30.04 1017 10 16 0.00 0.00
11:53 am 11:53 Sunny 84 28.9 61 16.1 46 46 ENE 13 20 30.04 1017 10 16 0.00 0.00
12:53 pm 12:53 Sunny 85 29.4 61 16.1 45 45 NE 8 13 30.03 1017 10 16 0.00 0.00
1:53 pm 13:53 Sunny 87 30.6 61 16.1 42 42 NNE 9 15 30.01 1016 10 16 0.00 0.00
2:53 pm 14:53 Sunny 87 30.6 59 15 39 39 NNE 7 11 29.98 1015 10 16 0.00 0.00
3:53 pm 15:53 Sunny 87 30.6 57 13.9 36 36 NE 9 15 29.97 1015 10 16 0.00 0.00
4:53 pm 16:53 Sunny 86 30 56 13.3 36 36 NE 10 17 29.98 1015 10 16 0.00 0.00
5:53 pm 17:53 Sunny 85 29.4 57 13.9 39 39 NE 8 13 29.97 1015 10 16 0.00 0.00
6:53 pm 18:53 Sunny 81 27.2 58 14.4 45 45 ENE 6 9 29.98 1015 10 16 0.00 0.00
7:53 pm 19:53 Clear 74 23.3 63 17.2 69 69 N 3 6 29.99 1016 10 16 0.00 0.00
8:53 pm 20:53 Clear 74 23.3 62 16.7 66 66 NE 7 11 30.01 1016 10 16 0.00 0.00
9:53 pm 21:53 Clear 71 21.7 60 15.6 68 68 ENE 3 6 30.03 1017 10 16 0.00 0.00
10:53 pm 22:53 Clear 68 20 62 16.7 81 81 Calm 30.04 1017 10 16 0.00 0.00
11:53 pm 23:53 Clear 65 18.3 61 16.1 87 87 Calm 30.04 1017 10 16 0.00 0.00

Powered by AerisWeather